Regional Weather Roundup
Issued by NWS Grand Forks, ND

Home | Current Version | Previous Version | Graphics & Text | Print | Product List | Glossary On
Versions: 1 2 3 4 5 6 7 8 9 10 11 12 13 14 15 16 17 18 19 20 21 22 23 24 25 26 27 28 29 30 31 32 33 34 35 36 37 38 39 40 41 42 43 44 45 46 47 48 49 50
000
ASUS43 KFGF 261231
RWRFGF
PRAIRIE TO PINES  WEATHER ROUNDUP
NATIONAL WEATHER SERVICE EASTERN NORTH DAKOTA/GRAND FORKS ND
600 AM CST THU FEB 26 2015

 **SATELLITE DATA USED TO AUGMENT SKY COVER AT AUTOMATED STATIONS**
 *****  WEATHER ACROSS EASTERN NORTH DAKOTA  *****

CITY           SKY/WX    TMP DP  RH WIND       PRES   REMARKS
GRAND FORKS    CLEAR    -15 -20  78 NW7       30.53R WCI -31
6HR MIN TEMP: -15; 6HR MAX TEMP:  -9;

GRAND FRKS AFB FAIR     -12 -20  69 NW8       30.53R WCI -29
GRAND FRKS NWS   N/A    -13 N/A N/A N9          N/A  WCI -31
DEVILS LAKE    CLEAR    N/A N/A N/A MISG        N/A
FARGO          CLEAR    -12 -19  71 N9        30.52R WCI -30
WAHPETON ARPT  SUNNY     -8 -15  71 N8        30.51R WCI -23
$$

 ***** WEATHER ACROSS CENTRAL AND WESTERN NORTH DAKOTA  *****

CITY           SKY/WX    TMP DP  RH WIND       PRES   REMARKS
BISMARCK       CLEAR     -9 -15  75 NW7       30.54R WCI -24
6HR MIN TEMP:  -9; 6HR MAX TEMP:  -2;

MINOT          CLEAR    -13 -20  71 W15       30.52R WCI -36
6HR MIN TEMP: -13; 6HR MAX TEMP:  -8;

JAMESTOWN      CLEAR    -13 -19  75 NW10      30.47R WCI -32
6HR MIN TEMP: -14; 6HR MAX TEMP:  -9;

MINOT AFB      CLEAR    -15 -21  74 NW12      30.53R WCI -36
GARRISON         N/A    -16 -21  78 NW12      30.51R WCI -37
WILLISTON      PTCLDY   -15 -19  82 CALM      30.57R
6HR MIN TEMP: -19; 6HR MAX TEMP:  -8;

DICKINSON      CLEAR    -10 -15  78 NW8       30.43R WCI -26
6HR MIN TEMP: -10; 6HR MAX TEMP:  -4;

HETTINGER      CLEAR    -12 -17  78 NW8       30.43S WCI -29
6HR MIN TEMP: -12; 6HR MAX TEMP:  -3;

$$

 *****  OTHER AIRPORT OBSERVATIONS IN OUR AREA  *****

CITY           SKY/WX    TMP DP  RH WIND       PRES   REMARKS
WALHALLA         N/A     -9 -18  64 NW8       30.53S WCI -26
GRAFTON AIRPOR NOT AVBL
VALLEY CITY AR FAIR     -13 -18  77 NW9       30.48R WCI -31
CANDO          FAIR     -17 -22  76 W7        30.51R WCI -33
CAVALIER APRT  FAIR     -11 -18  70 NW8       30.53S WCI -28
GWINNER        SUNNY     -8 -17  65 NW9       30.50R WCI -25
SHEYENNE NWR     N/A    -14 -21  69 NW5       29.95S WCI -26
ROLLA          FAIR      -9 -18  64 NW10      30.46R WCI -28
 ***** THE ABOVE OBSERVATIONS ARE NON NWS ARE NOT QUALITY
       CONTROLLED AND MAY MIS-REPORT RAIN FOR SNOW...
$$

  *****  WEATHER ACROSS NORTHERN MINNESOTA  *****

CITY           SKY/WX    TMP DP  RH WIND       PRES   REMARKS
FLAG ISLAND    PTCLDY   -20 -27  69 NW5       30.42R WCI -33
WARROAD        PTCLDY   -18 -26  69 W3        30.44R
ROSEAU         PTCLDY   -17 -24  70 W3        30.45S
HALLOCK        CLEAR    -17 -24  70 NW3       30.51S
THF RVR FALLS  PTCLDY   -17 -29  52 NW8       30.46R WCI -34
6HR MIN TEMP: -15; 6HR MAX TEMP: -11;

BAUDETTE       PTCLDY   -18 -24  74 NW10      30.39R WCI -39
6HR MIN TEMP: -18; 6HR MAX TEMP: -10;

WASKISH        PTCLDY   -18 -24  76 CALM      30.40R
CROOKSTON      CLEAR    -15 -20  76 N8        30.52R WCI -32
STEPHEN NDAWN    N/A    -18 -24  76 NW6         N/A  WCI -33
GREENBUSH NDAW   N/A    -18 -24  76 MISG        N/A
$$
  *****  WEATHER ACROSS CENTRAL AND WEST MINNESOTA  *****

CITY           SKY/WX    TMP DP  RH WIND       PRES   REMARKS
FOSSTON        PTCLDY   -20 -26  76 NW5       30.44R WCI -33
BEMIDJI        CLEAR    -20 -25  77 W7        30.38R WCI -37
PARK RAPIDS    FAIR     -16 -21  78 NW8       30.37R WCI -34
6HR MIN TEMP: -16; 6HR MAX TEMP:  -7;

ELBOW LAKE     FAIR     -11 -16  80 NW8       30.45R WCI -28
6HR MIN TEMP: -11; 6HR MAX TEMP:  -6;

WADENA         CLEAR    -15 -20  76 NW8       30.40R WCI -32
DETROIT LAKES  PTCLDY   -13 -17  84 NW6       30.43R WCI -27
MOORHEAD       CLEAR    -11 -17  77 NW6       30.51R WCI -25
FERGUS FALLS   CLEAR    -11 -18  70 N7        30.52R WCI -26
MORRIS MN      FAIR      -9 -17  70 NW10      30.45R WCI -28
STAPLES        CLEAR    -17 -20  83 NW6       30.40R WCI -31
$$
  *****  WEATHER ELSEWHERE ACROSS MINNESOTA  *****

CITY           SKY/WX    TMP DP  RH WIND       PRES   REMARKS
DULUTH         CLEAR    -13 -19  75 NW6       30.29R WCI -27
6HR MIN TEMP: -13; 6HR MAX TEMP:  -3;

INTRNTL FALLS  PTCLDY   -30  52 100 W3        30.37R
6HR MIN TEMP: -30; 6HR MAX TEMP: -11;

ELY            PTCLDY   -29 -36  68 CALM        N/A
CLOQUET        CLEAR    -13 -18  77 NW8       30.32R WCI -30
WHEATON        CLEAR    -15 -18  84 NW7       30.52R WCI -31
BRAINERD       CLEAR    -13 -19  75 NW5       30.38R WCI -25
6HR MIN TEMP: -13; 6HR MAX TEMP:  -4;

HIBBING        FAIR     -15 -21  74 N7        30.32R WCI -31
6HR MIN TEMP: -17; 6HR MAX TEMP:  -8;

ALEXANDRIA     CLEAR    -13 -18  78 NW8       30.40R WCI -30
6HR MIN TEMP: -13; 6HR MAX TEMP:  -5;

SAINT CLOUD    CLEAR     -7 -14  71 NW8       30.40R WCI -23
6HR MIN TEMP:  -7; 6HR MAX TEMP:   1;

MINNEAPOLIS    CLEAR     -1 -12  59 N12       30.38R WCI -18
6HR MIN TEMP:  -2; 6HR MAX TEMP:   5;

$$

  *****  WEATHER ACROSS SOUTH DAKOTA  *****

CITY           SKY/WX    TMP DP  RH WIND       PRES   REMARKS
SIOUX FALLS    CLEAR     -9 -14  78 NW7       30.43R WCI -24
6HR MIN TEMP:  -9; 6HR MAX TEMP:  -1;

BROOKINGS      NOT AVBL
WATERTOWN      CLEAR    -12 -16  82 NW6       30.40R WCI -26
6HR MIN TEMP: -13; 6HR MAX TEMP:  -6;

HURON          CLEAR    -15 -20  78 NW10      30.51R WCI -35
6HR MIN TEMP: -16; 6HR MAX TEMP:  -9;

SISSETON         N/A     -9 -14  78 N12       30.48R WCI -28
ABERDEEN       CLEAR     -9 -16  71 NW12      30.51R WCI -28
6HR MIN TEMP: -10; 6HR MAX TEMP:  -4;

MITCHELL       CLEAR     -6 -11  79 NW10      30.52R WCI -24
PIERRE         CLEAR     -4 -10  75 N9        30.49R WCI -20
6HR MIN TEMP:  -5; 6HR MAX TEMP:   3;

MOBRIDGE       CLEAR     -8 -14  74 NW13      30.46S WCI -28
RAPID CITY     LGT SNOW   2  -2  83 N10       30.38S FOG     WCI -14
6HR MIN TEMP:   2; 6HR MAX TEMP:   8; 6HR PCP: TRACE;

$$

  *****  SOME WEATHER IN NEARBY STATES *****

CITY           SKY/WX    TMP DP  RH WIND       PRES   REMARKS
GLASGOW MT     CLEAR     -5 -12  72 CALM      30.55S
6HR MIN TEMP:  -6; 6HR MAX TEMP:   1;

GREAT FALLS MT CLOUDY     3   1  92 NE7       30.34S FOG     WCI  -9
6HR MIN TEMP:   5; 6HR MAX TEMP:  13; 6HR PCP: TRACE;

CHEYENNE WY    CLOUDY     8   2  76 N8        30.09F WCI  -4
6HR MIN TEMP:   8; 6HR MAX TEMP:  13; 6HR PCP: TRACE;

SCOTTSBLUFF NE PTCLDY    10   2  69 N9        30.27S WCI  -3
6HR MIN TEMP:  10; 6HR MAX TEMP:  16;

OMAHA NE       CLEAR      2  -6  69 N21       30.42R WCI -20
6HR MIN TEMP:   2; 6HR MAX TEMP:  10; 6HR PCP: TRACE;

DES MOINES IA  PTCLDY     3  -7  63 N12       30.32R WCI -13
6HR MIN TEMP:   3; 6HR MAX TEMP:  11;

DAVENPORT IA   CLOUDY    10   3  73 N14       30.19R WCI  -6
6HR MIN TEMP:  10; 6HR MAX TEMP:  14; 6HR PCP: TRACE;

CHICAGO IL     LGT SNOW  15  10  80 NE16      30.13R BLWGSNOWWCI  -1
6HR MIN TEMP:  15; 6HR MAX TEMP:  18; 6HR PCP:  0.14;

EAU CLAIRE WI  PTCLDY    -6 -14  68 N5        30.32R WCI -17
6HR MIN TEMP:  -7; 6HR MAX TEMP:   2;

LA CROSSE WI   CLEAR     -5 -12  72 NW7       30.32R WCI -19
6HR MIN TEMP:  -6; 6HR MAX TEMP:   6;

$$

  *****  SOME NATIONAL WEATHER *****

CITY           SKY/WX    TMP DP  RH WIND       PRES   REMARKS
LA GUARDIA NY  CLOUDY    22   4  46 NE13      30.02S WCI  10
6HR MIN TEMP:  22; 6HR MAX TEMP:  29;

RALEIGH NC     FRZ RAIN  31  27  85 NE13G21   29.72F VSB 1/2 WCI  21
6HR MIN TEMP:  31; 6HR MAX TEMP:  32; 6HR PCP:  0.60;

ATLANTA GA     CLOUDY    34  30  86 NW14      29.82R WCI  24
6HR MIN TEMP:  33; 6HR MAX TEMP:  36; 6HR PCP: TRACE;

NEW ORLEANS LA CLOUDY    39  33  79 N10       29.95R
6HR MIN TEMP:  39; 6HR MAX TEMP:  42;

OKLAHOMA CITY  MOCLDY    25  12  58 N22G32    30.24R WCI  10
6HR MIN TEMP:  24; 6HR MAX TEMP:  37;

ALBUQUERQUE NM PTCLDY    33  20  58 CALM      30.01R
6HR MIN TEMP:  32; 6HR MAX TEMP:  41;

SALT LAKE CITY CLOUDY    34  20  56 S3        29.97F
6HR MIN TEMP:  33; 6HR MAX TEMP:  40;

LOS ANGELES CA PTCLDY    50  49  96 E3        29.95F FOG


USA.gov is the U.S. government's official web portal to all federal, state and local government web resources and services.